Flag for Romania Weather past 2 weeks in Constanța, Romania

Now
40 °F

Fog.


Feels Like: 40 °F
Forecast: 36 / 45 °F
Wind: 2 mph from Northwest

Location: Constanta

Current Time: Dec 18, 2014 at 4:27:15 AM

Latest Report: Dec 18, 2014 at 4:00 AM


Visibility: 2 mi

Pressure: 29.92 "Hg

Humidity: 93%

Dew point: 38 °F

Location of ConstanțaLocation

Historic Weather in Constanța — Graph

°F

Constanța temperature yesterday

Maximum temperature yesterday: 54 °F (at 2:00 PM)
Minimum temperature yesterday: 45 °F (at 8:00 AM)
Average temperature yesterday: 49 °F

Past Weeks' High & Low Weather Summary

 TemperatureHumidityPressure
High54 °F (Dec 17, 2:00 PM)100% (Dec 4, 2:00 AM)30.33 "Hg (Dec 4, 2:00 AM)
Low30 °F (Dec 13, 7:00 AM)63% (Dec 13, 2:00 PM)29.88 "Hg (Dec 17, 6:00 PM)
Average41 °F94%30.15 "Hg
* Reported Dec 3 3:00 AM — Dec 18 3:00 AM, Constanța, Weather by CustomWeather, © 2014

Note: Actual official high and low records may vary slightly from our data, if they occured in-between our weather recording intervals... More about our weather records

Advertising

Constanța weather history for previous 24 hours

 ConditionsComfort  
Time TempWeatherWind HumidityBarometerVisibility
3:00 AM
Dec 18
41 °FFog.2 mph94%29.93 "Hg2 mi
2:00 AM43 °FFog.3 mph93%29.90 "Hg2 mi
1:00 AM44 °FFog.2 mph99%29.90 "Hg2 mi
12:00 AM46 °FFog.1 mph100%29.91 "Hg2 mi
11:00 PM
Dec 17
49 °FFog.1 mph99%29.90 "Hg2 mi
10:00 PM50 °FFog.N/A97%29.90 "Hg2 mi
9:00 PM50 °FFog.1 mph96%29.89 "Hg2 mi
8:00 PM51 °FFog.1 mph95%29.89 "Hg2 mi
7:00 PM52 °FOvercast.1 mph94%29.89 "Hg6 mi
6:00 PM52 °FOvercast.2 mph94%29.88 "Hg6 mi
5:00 PM53 °FPassing clouds.1 mph93%29.89 "Hg6 mi
4:00 PM54 °FOvercast.1 mph91%29.90 "Hg6 mi
3:00 PM53 °FLight rain. Overcast.2 mph91%29.90 "Hg6 mi
2:00 PM54 °FOvercast.5 mph86%29.91 "Hg6 mi
1:00 PM53 °FOvercast.2 mph85%29.93 "Hg6 mi
12:00 PM51 °FPartly sunny.3 mph86%29.95 "Hg6 mi
11:00 AM49 °FPartly sunny.2 mph88%29.97 "Hg6 mi
10:00 AM47 °FPartly sunny.1 mph92%29.97 "Hg6 mi
9:00 AM46 °FPartly sunny.No wind93%29.97 "Hg6 mi
8:00 AM45 °FFog.1 mph95%29.97 "Hg2 mi
7:00 AM45 °FClear.No wind93%29.97 "Hg6 mi
6:00 AM46 °FPassing clouds.1 mph93%29.97 "Hg6 mi
4:00 AM46 °FFog.2 mph95%30.00 "Hg2 mi
Weather by CustomWeather, © 2014

See weather overviewHow to use our weather pages